Temp_Advection
nan nan nan nan nan nan nan nan nan nan nan nan nan nan nan nan nan nan nan nan nan nan nan nan nan nan nan nan nan nan nan nan nan nan nan nan nan nan nan nan nan nan nan nan nan nan nan nan nan
nan 0 -0 -0 -0 -0 -0 0 -0 0 -0 0 -0 -0 -0 -0 -0 -0 0 0 0 0 -0 0 0 -0 -0 -0 0 0 0 -0 0 -0 -0 0 0 -0 -0 -0 0 0 0 -0 0 0 0 -0 nan
nan 0 -0 -0 0 -0 -0 -0 0 0 -0 0 -0 -0 -0 -0 -0 -0 -0 0 -0 0 -0 -0 -0 0 0 0 0 0 -0 -0 -0 0 -0 0 0 -0 -0 -0 -0 0 0 0 0 0 0 -0 nan
nan -0 -0 -0 -0 -1 -0 -0 0 0 -0 0 -0 -0 0 0 -0 -0 -0 -0 -0 0 0 -0 0 0 0 0 0 -0 -0 0 0 0 0 -0 -0 -0 -0 -0 -0 -0 -0 0 -0 -0 -0 -0 nan
nan -1 -0 -0 -1 -0 0 0 0 0 -0 0 -0 0 -0 0 -0 -0 -0 0 -0 0 0 0 0 0 0 0 0 0 0 0 0 -0 0 0 -0 -0 -0 -0 -0 -0 -0 -0 -0 -0 -0 -0 nan
nan -0 -0 -1 -1 0 0 0 -0 -0 -0 -0 -0 -0 -0 0 -0 -0 -0 0 0 0 0 0 0 0 0 0 0 0 0 0 0 -0 0 0 0 -0 -0 -0 -0 -0 -0 -0 -0 -0 -0 -0 nan
nan -0 -1 -1 0 0 -0 0 -0 -0 -0 0 -0 -0 -0 -0 0 -0 -0 -0 0 0 -0 -0 -0 0 0 0 0 0 0 -0 -0 0 0 0 0 0 -0 -0 -0 0 -0 -0 -0 -0 -0 -0 nan
nan -0 -0 0 0 -0 0 0 0 0 0 0 -0 0 0 -0 -0 0 -0 -0 -0 0 -0 0 -0 0 0 0 0 -0 -0 -0 -0 0 0 0 0 0 0 0 0 0 0 0 0 0 0 0 nan
nan -0 -0 0 -0 0 0 -0 0 0 0 0 0 0 0 -0 0 0 0 -0 -0 -0 0 0 0 0 -0 -0 -0 -0 -0 -0 0 0 -0 0 0 0 0 0 0 0 0 0 0 0 0 0 nan
nan -0 -0 0 0 1 0 0 0 -0 0 -0 0 0 -0 0 1 1 0 0 -0 -0 -0 -1 0 0 -0 -0 -0 0 0 0 1 0 0 0 0 0 0 0 0 0 0 0 0 0 0 0 nan
nan -0 0 1 1 1 0 0 0 0 -0 0 0 0 -0 0 1 1 0 -0 0 0 -1 -0 -0 -0 -0 0 0 0 0 0 0 0 0 0 -0 -0 0 0 0 0 0 0 0 0 0 0 nan
nan 0 0 0 0 0 1 0 -0 0 0 0 0 -0 -0 0 0 0 0 0 0 -0 -0 0 -0 -0 -0 -0 0 0 -0 -0 -0 -0 -0 0 -0 0 0 0 0 0 0 0 0 0 0 -0 nan
nan 0 0 -0 0 0 0 0 0 0 1 0 -0 -0 -0 -0 0 0 -0 -0 -1 0 0 0 0 -0 -0 -0 0 -0 -0 -0 -0 0 0 -1 -1 -0 0 0 0 0 0 0 0 0 -0 0 nan
nan 0 -0 0 -0 -0 -0 0 0 0 0 -0 -0 -0 0 0 -0 -0 -0 -0 0 0 -0 -0 0 -0 -0 -0 -0 -0 0 0 0 0 -1 -1 0 0 0 0 -0 0 0 0 0 0 0 -0 nan
nan -0 -0 -0 -0 0 0 -0 -0 -0 -0 -0 -0 0 0 0 0 -0 -0 -0 -0 0 0 0 -0 -0 -0 0 0 0 0 -0 -0 -0 -0 0 0 0 0 0 -0 -0 0 0 0 -0 -0 -0 nan
nan -0 0 -0 0 0 -0 -0 -0 0 0 -0 -0 0 0 0 0 -0 0 0 -0 -0 0 0 -0 -1 -0 -0 0 0 -0 -0 -0 0 0 0 0 0 0 0 -0 0 0 0 -0 -0 -0 0 nan
nan 0 -0 0 -0 0 0 -0 0 0 0 -0 0 0 0 -0 -0 -0 -0 -0 -1 -0 -0 -0 1 1 -1 -1 -0 0 0 0 0 0 -0 0 0 0 0 1 0 1 0 0 0 -0 -0 0 nan
nan 0 -0 -0 0 0 -0 -0 0 0 -0 -0 -0 0 0 0 -0 0 -0 -0 -0 -0 0 0 0 1 1 -0 -1 0 0 0 0 -0 -0 0 0 0 1 1 1 1 -0 0 0 -1 -0 0 nan
nan -0 0 0 0 -0 -0 0 -0 -0 -0 -0 -0 -0 0 1 0 -0 -0 -0 -0 -0 -0 -0 -0 -0 1 -0 -1 -0 -0 -0 -0 -0 0 0 0 0 0 0 1 -0 0 0 -0 -0 0 1 nan
nan 0 0 -0 0 0 0 -0 -0 0 1 0 -0 -0 0 0 -0 -1 -1 -0 -0 -0 0 0 0 0 0 1 0 -0 1 1 0 -0 -0 0 0 -0 0 0 0 0 1 1 0 -1 0 0 nan
nan 0 0 -0 -0 0 -0 -0 0 -0 -0 -0 0 0 -0 -0 -0 -0 -0 -0 -0 -0 -0 0 0 0 0 1 1 1 1 -0 -2 -1 -1 -0 0 1 0 0 1 0 0 1 -0 -0 0 0 nan
nan 0 0 0 -0 0 -0 0 -0 -0 -0 -0 -0 -0 -0 -0 -0 -0 0 0 0 -0 -0 0 0 -0 0 0 1 1 0 -1 -2 -0 -0 0 0 0 0 1 1 1 0 0 0 0 1 1 nan
nan 0 0 0 0 0 -0 0 -0 -0 -0 0 -0 -0 -0 -0 -0 0 0 0 -0 -0 -0 -0 -0 0 0 0 1 1 0 -0 0 0 -1 -1 -1 -0 0 1 1 0 1 0 0 1 1 1 nan
nan 0 -0 0 0 -0 0 -0 -0 0 -0 -0 -0 -0 -0 -0 -0 -0 -0 -0 -0 -0 -0 -0 -0 -0 -0 0 0 0 0 1 0 -0 -1 -1 -0 -1 0 0 -0 0 0 0 0 1 1 1 nan
nan -0 -0 -0 -0 0 0 -0 0 -0 0 0 -0 -0 -0 -0 -0 -0 -0 -0 -0 -0 -0 -0 -0 -0 -0 -0 0 0 0 1 1 -0 -0 -0 -1 -2 -0 1 1 -0 -0 0 0 0 1 2 nan
nan -0 -0 0 0 -0 -0 -1 0 -0 0 0 -0 -0 -0 -0 -0 -0 -0 -1 -1 -1 -1 -1 -0 -0 -0 -0 -0 -0 -0 -0 -0 -0 0 0 -0 -1 -0 0 1 0 -0 0 0 0 1 1 nan
nan 0 -0 -0 0 -0 -0 0 0 0 -0 -0 0 0 -0 -0 -0 -0 -0 -0 -0 -1 -1 -1 -1 -0 -0 -0 -0 -0 -0 -0 -0 -0 -0 -0 -0 -0 -0 -0 0 1 1 1 -0 -0 -0 2 nan
nan -0 0 -0 -0 -0 -0 -0 -0 -1 -0 -0 -0 -0 -0 -0 -0 -0 -0 -0 -0 -0 -0 -0 -0 -0 -0 -0 -0 -0 -0 -0 -0 -0 -0 -0 -0 -0 -0 0 0 1 1 2 1 -0 0 1 nan
nan -0 0 0 -0 -0 0 -0 0 -1 -0 -0 -0 -0 -0 -0 -0 -0 -0 -0 -0 -0 -0 -0 -0 -0 -0 -0 -0 -0 -0 -0 -0 -0 -0 -0 -0 0 0 1 1 1 1 1 -0 0 0 1 nan
nan nan nan nan nan nan nan nan nan nan nan nan nan nan nan nan nan nan nan nan nan nan nan nan nan nan nan nan nan nan nan nan nan nan nan nan nan nan nan nan nan nan nan nan nan nan nan nan nan
Wind_Speed
12 9 5 2 5 5 7 4 3 2 4 2 3 5 3 8 3 2 1 13 15 20 19 19 17 17 18 16 16 15 12 11 11 9 7 6 4 3 2 1 6 9 11 11 10 7 7 4 4
13 10 6 3 6 9 8 7 4 4 3 8 5 6 7 1 2 2 4 13 19 20 20 21 18 19 18 15 16 15 12 8 9 8 6 4 2 0 5 9 8 10 11 13 12 5 5 5 5
15 13 8 4 8 12 6 7 7 2 3 3 1 2 2 2 2 3 4 14 21 19 17 17 18 20 19 18 15 14 10 7 7 5 5 4 3 6 7 8 10 13 14 16 8 4 2 3 4
11 8 3 9 15 15 11 3 6 5 1 2 5 3 1 1 1 3 6 16 19 17 16 17 19 20 18 17 15 12 9 7 5 7 7 6 5 10 12 9 9 13 11 11 7 3 1 1 4
14 10 10 14 20 13 11 4 7 2 4 5 8 1 1 1 0 7 7 13 18 16 15 17 19 20 19 15 14 12 10 8 8 6 8 6 8 12 13 11 9 11 9 9 7 5 3 3 6
13 13 11 17 20 17 13 9 9 9 5 5 4 3 1 1 2 7 10 13 16 16 16 16 18 16 15 15 13 12 10 9 9 7 4 6 8 9 12 13 8 11 10 9 7 6 5 6 8
15 11 19 20 18 16 15 14 16 12 10 9 3 4 2 3 6 7 12 12 14 14 15 14 16 16 15 13 14 13 11 11 9 8 7 4 6 7 8 10 10 9 9 9 8 7 7 8 8
15 10 20 17 17 20 16 11 7 10 9 3 3 4 6 1 8 9 12 12 13 14 14 14 14 15 15 14 13 12 12 13 12 9 8 6 6 7 8 9 9 9 10 10 9 8 8 8 8
9 9 16 22 20 16 12 12 8 6 10 6 4 2 3 3 9 12 14 14 14 14 15 15 15 14 13 13 14 14 13 12 13 12 12 7 7 8 8 10 10 9 9 9 9 8 8 8 7
14 14 19 9 9 11 13 13 13 9 11 10 7 2 6 7 10 14 15 15 16 16 16 15 15 14 14 15 14 14 14 13 13 15 15 9 10 10 10 11 10 10 9 9 8 8 7 6 6
15 15 7 7 9 9 13 10 8 10 9 8 7 1 1 5 11 15 14 13 15 14 15 17 15 15 15 15 14 13 13 12 13 14 14 13 12 13 12 11 12 11 10 9 10 9 8 8 8
9 15 9 6 8 7 11 9 7 10 4 7 8 3 2 3 9 13 14 14 13 15 16 17 17 16 16 15 15 13 14 14 13 16 16 15 14 14 13 12 12 12 11 11 11 9 10 10 10
13 5 9 7 7 6 7 7 8 10 8 5 6 7 3 2 6 11 13 13 15 16 17 17 17 19 19 18 16 16 15 17 15 16 17 17 17 16 16 14 14 13 13 12 12 11 11 11 12
14 7 9 12 8 5 7 8 5 5 7 12 12 13 11 9 9 8 12 15 15 15 16 17 18 19 19 22 20 17 16 16 18 18 18 19 19 18 18 16 15 17 15 14 13 12 12 13 13
4 12 13 8 10 10 7 13 13 18 16 14 13 13 12 14 12 14 13 13 13 15 15 16 17 18 19 20 21 22 19 18 19 19 20 20 21 21 20 18 17 17 17 17 16 15 15 16 16
12 6 9 11 17 6 8 14 3 6 13 16 16 18 18 21 20 20 19 20 17 18 17 16 18 21 23 24 23 22 22 21 22 20 21 21 23 23 22 21 21 20 18 21 18 19 19 19 18
14 10 17 5 12 13 16 8 7 7 5 9 10 11 12 16 17 22 24 24 26 25 25 26 24 22 23 27 27 26 25 25 24 25 24 24 24 24 25 24 22 21 20 22 21 21 21 21 20
17 16 14 14 7 10 10 16 6 9 8 13 14 14 14 15 17 15 16 20 23 26 27 27 27 26 24 24 29 31 30 29 28 29 28 28 27 26 26 28 26 23 23 24 24 24 25 24 22
8 16 9 7 6 7 12 11 12 15 16 18 19 19 16 14 15 19 22 22 24 24 25 26 26 28 28 25 32 33 37 35 36 35 35 34 32 30 30 28 29 27 29 27 28 28 28 28 27
12 13 10 5 5 6 5 8 12 15 16 12 13 14 11 7 5 10 16 20 23 25 27 28 29 27 29 29 29 36 34 39 39 37 35 36 37 34 35 33 32 30 30 32 29 32 34 30 32
9 12 10 4 6 1 4 7 6 3 4 5 6 6 5 5 5 7 6 1 6 13 20 27 30 30 30 32 27 25 27 30 33 38 38 36 35 37 41 38 36 36 33 35 37 36 37 37 34
11 4 8 8 7 3 2 3 4 7 9 9 11 10 9 8 8 8 8 9 6 4 4 9 17 25 31 32 32 27 27 30 37 39 40 40 39 39 39 41 39 41 38 37 38 38 39 40 39
4 7 6 5 3 1 4 4 6 9 10 9 9 8 8 9 8 9 10 10 9 8 7 3 5 9 16 27 31 27 25 24 25 26 32 37 40 41 39 40 40 44 43 40 39 39 41 42 42
11 10 7 4 1 4 4 4 8 9 11 9 5 7 6 7 8 9 8 8 8 8 7 6 5 5 8 13 21 29 28 24 21 25 27 30 31 32 34 36 39 40 46 44 41 42 42 42 43
3 9 4 3 3 2 1 4 3 8 6 9 6 5 6 7 7 10 10 9 9 9 9 9 8 7 7 7 10 16 23 25 23 22 22 24 27 34 33 33 34 35 38 43 45 44 43 43 43
7 4 2 3 4 3 3 5 3 7 9 11 2 4 4 6 8 9 10 11 12 12 11 12 13 13 12 11 10 11 12 16 19 21 23 23 23 27 28 34 34 33 34 37 41 43 45 43 43
3 4 2 4 2 2 4 3 4 4 9 8 3 3 4 6 10 10 11 12 12 12 12 12 12 14 14 14 14 14 14 15 16 18 19 21 22 23 24 26 29 30 31 31 34 39 41 41 39
2 8 3 0 4 4 4 3 4 11 14 6 2 5 3 5 7 9 11 10 11 12 12 11 10 10 11 12 12 13 15 17 19 20 21 22 24 26 27 29 30 29 29 29 29 30 35 37 36
4 3 2 1 2 2 2 3 8 15 13 5 4 4 3 5 7 9 8 9 9 9 6 5 5 6 8 11 13 14 14 15 15 15 17 20 24 26 28 29 28 26 24 23 24 24 28 32 34
1 2 3 2 3 1 3 3 5 9 10 2 6 2 3 4 6 6 7 7 7 8 7 8 8 8 8 9 11 14 16 17 16 17 18 19 18 22 25 24 24 21 19 19 20 22 25 27 28
Wind_Direction
202 199 186 184 232 243 230 223 282 219 193 156 309 244 294 311 286 14 199 175 166 162 166 166 168 167 166 172 175 177 182 183 182 183 198 206 223 253 275 154 139 158 150 154 141 120 72 90 133
191 181 168 180 239 222 216 215 220 216 328 304 272 232 242 129 355 3 121 175 160 158 165 168 170 162 161 166 173 179 181 189 177 184 201 205 214 138 99 114 132 141 143 156 155 126 73 94 84
188 174 192 216 230 231 230 210 223 215 26 23 195 228 298 21 24 121 153 162 158 159 165 172 168 166 165 173 182 179 187 194 169 180 178 181 146 122 120 134 135 142 144 157 164 140 97 107 84
180 185 188 229 221 229 232 63 163 152 140 354 350 203 220 247 47 137 149 154 159 162 164 175 169 164 173 184 189 185 188 196 182 148 125 148 153 155 145 154 150 159 163 180 197 202 177 102 108
180 204 211 225 232 222 227 219 168 188 311 332 342 82 26 315 294 153 146 162 160 163 168 175 176 177 184 187 192 190 191 195 179 180 145 151 155 168 173 169 168 181 185 189 200 211 205 157 138
189 216 215 221 223 220 232 216 235 247 268 301 293 298 106 221 144 154 152 160 163 166 167 176 180 183 190 202 202 195 192 184 189 191 167 149 153 167 182 188 194 177 184 192 197 195 175 153 147
219 204 222 228 227 212 222 223 229 247 258 271 249 254 120 122 197 165 152 158 167 172 172 174 178 183 191 192 198 197 188 193 206 200 201 165 163 165 177 187 193 184 183 187 185 177 163 156 154
218 232 223 230 220 229 217 206 214 215 244 199 218 218 150 21 211 176 162 163 171 179 183 178 180 184 191 197 197 197 205 208 216 221 200 194 186 177 173 176 181 181 178 177 176 170 164 159 159
186 221 220 215 223 215 187 196 195 205 223 209 204 252 234 279 200 185 176 180 181 183 185 185 185 188 193 200 214 215 217 222 226 217 219 211 203 190 181 181 178 180 180 183 183 180 169 168 173
201 218 221 226 208 205 186 200 178 181 191 204 203 261 275 245 204 197 189 192 196 197 192 191 195 195 200 206 211 211 214 216 218 215 215 208 198 194 183 193 190 191 192 193 195 193 183 185 190
206 223 189 193 183 170 177 175 178 187 194 199 188 182 351 222 199 201 205 207 209 206 206 206 203 205 209 212 209 212 217 214 204 206 205 202 202 211 205 203 202 203 205 202 201 203 198 201 204
205 223 215 159 159 145 172 176 189 215 207 159 134 84 49 206 203 205 209 210 212 217 220 214 213 213 213 215 222 223 227 224 215 211 209 208 208 210 205 203 205 204 205 202 198 201 210 214 210
221 189 193 182 156 141 142 186 226 222 211 224 248 261 232 240 226 227 220 222 220 221 224 223 223 224 221 220 226 228 234 239 235 231 222 219 216 220 215 212 212 210 210 208 210 210 216 218 219
205 202 192 207 200 170 195 214 222 209 214 240 246 251 253 249 240 231 226 227 231 234 239 236 229 230 230 231 230 236 239 241 239 235 233 233 231 227 222 217 219 223 219 218 216 215 215 221 227
190 206 228 204 204 226 205 235 232 243 249 247 241 246 250 252 246 239 238 239 236 238 239 242 250 247 241 243 240 240 236 235 243 245 245 242 238 234 232 226 223 224 229 221 221 219 221 225 226
192 204 191 210 209 205 195 246 188 206 227 240 247 249 252 253 253 250 247 245 247 249 248 242 239 249 251 251 250 241 248 247 243 244 245 248 247 241 237 235 234 235 226 228 222 228 231 229 228
193 208 211 168 203 205 213 251 230 202 215 241 239 241 249 260 255 254 256 257 256 257 254 252 246 240 246 256 256 252 246 247 250 250 249 248 247 248 244 241 236 234 229 230 225 228 232 230 231
190 205 207 206 163 203 213 234 208 210 248 265 264 260 255 261 267 266 259 253 252 251 251 250 251 248 243 247 254 254 248 246 245 252 251 248 248 250 249 245 243 235 232 230 227 230 236 233 232
181 196 189 209 140 207 229 241 247 255 261 259 264 268 269 268 270 271 267 262 259 255 253 249 245 247 246 237 246 247 249 249 250 249 249 250 252 248 251 251 247 240 236 231 231 234 237 233 229
183 189 184 107 165 230 209 250 251 253 264 277 275 275 278 279 291 282 269 261 257 255 251 250 250 247 242 239 242 246 247 247 249 250 249 249 248 247 249 249 249 246 241 236 228 230 234 232 230
191 198 172 153 149 111 276 247 204 126 98 108 94 99 78 60 46 39 35 318 257 259 255 247 241 237 236 238 238 238 239 244 247 247 249 249 248 249 247 248 249 248 242 240 239 235 236 235 234
180 170 152 139 184 210 275 179 118 131 114 110 103 87 66 54 51 49 51 58 57 24 291 256 249 245 240 238 240 237 237 243 249 252 254 250 250 247 248 248 246 248 248 245 244 243 239 236 239
115 155 124 117 140 251 189 243 114 152 138 126 94 75 59 43 39 37 44 50 43 35 29 2 267 252 248 245 242 236 238 242 250 252 256 259 259 257 254 254 250 248 249 247 247 245 239 237 238
134 109 85 91 104 231 159 250 165 178 165 142 104 63 58 36 32 25 24 28 24 17 2 354 338 299 269 258 249 242 244 248 248 252 254 258 260 261 260 260 258 251 250 251 249 247 247 243 238
80 167 139 175 189 251 148 217 61 144 166 147 89 55 35 24 24 12 5 358 349 340 334 324 315 301 292 277 259 246 244 245 247 251 255 260 262 262 260 264 264 262 258 257 255 252 249 246 242
177 239 263 190 180 139 159 225 131 142 142 153 72 13 24 32 16 7 358 344 333 325 319 314 308 301 285 276 275 267 257 254 256 259 263 264 264 267 267 263 263 264 260 256 253 253 253 251 246
172 216 20 95 61 230 178 215 219 179 194 203 311 356 23 17 1 356 348 339 329 324 315 305 303 294 290 281 277 272 270 266 264 262 265 268 271 271 269 267 264 264 264 263 258 254 250 251 246
249 134 168 240 184 224 181 237 144 150 157 178 359 3 16 0 355 349 347 341 332 330 320 306 301 290 288 289 290 290 284 278 273 269 266 265 265 263 265 266 266 264 262 261 261 259 252 246 235
151 190 78 103 312 274 192 131 135 150 148 119 14 360 348 348 357 357 2 353 350 343 341 339 326 304 286 288 289 292 295 294 289 285 277 275 273 268 265 264 265 262 257 256 256 252 250 246 239
290 209 208 255 170 31 333 104 164 163 169 86 355 338 346 4 358 13 3 7 15 21 25 21 10 0 348 333 317 303 292 289 292 287 285 287 288 278 266 262 261 258 253 247 245 244 240 235 231
Height
1534 1536 1537 1539 1540 1533 1528 1527 1526 1525 1525 1526 1527 1526 1522 1523 1517 1521 1521 1522 1524 1528 1531 1533 1535 1538 1541 1543 1545 1547 1549 1550 1551 1551 1552 1552 1552 1553 1553 1553 1553 1553 1554 1555 1555 1555 1555 1555 1555
1532 1535 1538 1538 1535 1534 1524 1521 1526 1523 1525 1526 1525 1525 1524 1518 1522 1522 1523 1522 1526 1530 1532 1534 1536 1539 1541 1544 1546 1547 1549 1550 1550 1551 1551 1552 1552 1553 1553 1554 1554 1555 1555 1556 1556 1556 1557 1557 1556
1531 1533 1535 1531 1528 1527 1523 1521 1520 1526 1527 1525 1523 1524 1523 1522 1523 1524 1521 1522 1527 1532 1534 1535 1537 1540 1542 1544 1546 1548 1549 1550 1550 1550 1550 1552 1553 1554 1555 1556 1556 1557 1557 1557 1557 1558 1558 1558 1558
1531 1534 1534 1527 1524 1521 1520 1522 1524 1526 1527 1526 1525 1522 1524 1523 1524 1524 1523 1524 1529 1533 1536 1535 1538 1541 1543 1545 1547 1548 1550 1550 1551 1551 1552 1553 1554 1556 1557 1558 1558 1558 1558 1559 1559 1559 1559 1560 1559
1528 1527 1522 1523 1519 1518 1523 1525 1526 1525 1526 1525 1524 1520 1522 1523 1523 1524 1525 1527 1531 1534 1537 1536 1540 1542 1544 1546 1548 1549 1550 1551 1551 1552 1553 1554 1555 1556 1557 1558 1558 1559 1559 1560 1560 1560 1561 1561 1561
1526 1522 1516 1518 1515 1516 1521 1524 1526 1525 1525 1525 1524 1522 1523 1523 1524 1524 1526 1528 1531 1534 1536 1539 1540 1543 1544 1546 1548 1549 1550 1552 1552 1552 1553 1554 1555 1556 1557 1558 1559 1560 1560 1560 1561 1561 1561 1561 1562
1515 1515 1510 1507 1512 1516 1519 1521 1523 1522 1523 1524 1525 1521 1524 1526 1524 1525 1526 1530 1531 1534 1536 1540 1540 1542 1544 1546 1548 1549 1551 1552 1553 1553 1554 1554 1555 1556 1557 1558 1559 1559 1559 1560 1560 1561 1561 1561 1562
1517 1514 1509 1505 1510 1511 1514 1520 1520 1522 1520 1523 1524 1519 1521 1525 1524 1525 1526 1530 1532 1533 1536 1539 1541 1542 1544 1545 1547 1549 1551 1552 1553 1553 1553 1555 1555 1556 1557 1558 1559 1559 1559 1560 1560 1561 1562 1562 1562
1516 1511 1505 1508 1509 1509 1514 1516 1519 1520 1522 1523 1523 1523 1523 1523 1524 1525 1526 1528 1530 1533 1535 1538 1540 1542 1545 1547 1546 1548 1550 1551 1552 1552 1553 1554 1556 1556 1557 1557 1558 1559 1559 1560 1560 1561 1562 1562 1562
1510 1506 1501 1504 1508 1508 1513 1513 1517 1519 1520 1521 1522 1522 1521 1522 1523 1524 1526 1527 1529 1531 1534 1536 1538 1540 1542 1543 1545 1547 1548 1550 1551 1550 1552 1555 1556 1557 1557 1557 1558 1559 1559 1560 1560 1561 1562 1563 1563
1507 1500 1503 1510 1510 1511 1511 1513 1516 1514 1516 1517 1520 1522 1521 1520 1522 1524 1526 1527 1529 1531 1532 1534 1537 1538 1540 1542 1544 1545 1547 1548 1551 1552 1551 1555 1555 1555 1556 1556 1557 1558 1558 1559 1559 1559 1560 1561 1562
1506 1504 1506 1509 1509 1511 1512 1513 1514 1515 1515 1518 1519 1520 1521 1522 1522 1523 1525 1526 1528 1529 1531 1532 1534 1536 1538 1540 1542 1543 1545 1546 1548 1549 1550 1551 1552 1553 1555 1555 1556 1557 1558 1559 1559 1560 1559 1559 1560
1503 1504 1507 1509 1510 1512 1513 1513 1513 1515 1517 1518 1518 1519 1521 1522 1523 1523 1523 1524 1525 1527 1528 1530 1532 1534 1535 1537 1539 1541 1543 1544 1545 1546 1547 1548 1549 1550 1551 1553 1553 1555 1556 1557 1557 1557 1558 1558 1558
1502 1505 1505 1507 1509 1511 1513 1514 1515 1513 1515 1517 1518 1518 1520 1521 1522 1522 1522 1524 1525 1526 1526 1528 1529 1531 1532 1534 1536 1538 1540 1541 1542 1543 1543 1544 1546 1547 1547 1549 1550 1551 1553 1553 1554 1555 1555 1556 1556
1504 1504 1505 1506 1507 1508 1512 1511 1509 1511 1512 1514 1515 1516 1517 1518 1519 1519 1521 1522 1523 1524 1526 1526 1526 1528 1530 1531 1533 1534 1535 1537 1538 1539 1540 1540 1542 1543 1544 1545 1546 1548 1549 1550 1551 1551 1552 1552 1553
1501 1502 1503 1497 1504 1507 1509 1499 1504 1507 1508 1509 1512 1512 1513 1513 1514 1515 1516 1516 1518 1519 1521 1523 1524 1524 1525 1527 1528 1530 1531 1532 1533 1534 1535 1537 1538 1539 1539 1540 1541 1543 1544 1545 1547 1547 1548 1549 1550
1495 1491 1495 1499 1499 1501 1504 1498 1500 1506 1507 1507 1508 1509 1509 1508 1509 1510 1511 1512 1513 1514 1516 1517 1518 1520 1521 1521 1523 1525 1527 1528 1529 1529 1531 1531 1533 1534 1535 1535 1537 1538 1540 1541 1542 1543 1545 1546 1547
1485 1491 1493 1492 1498 1500 1500 1498 1501 1503 1505 1504 1504 1505 1505 1505 1504 1506 1506 1506 1507 1508 1509 1510 1512 1514 1516 1517 1517 1518 1520 1521 1522 1524 1525 1525 1527 1528 1528 1530 1531 1533 1535 1536 1537 1539 1540 1542 1543
1481 1490 1492 1491 1497 1498 1496 1497 1497 1499 1500 1499 1498 1498 1499 1501 1501 1499 1499 1500 1500 1501 1502 1503 1505 1507 1510 1512 1510 1511 1512 1515 1516 1518 1519 1521 1522 1522 1522 1524 1525 1526 1528 1529 1531 1534 1534 1536 1538
1484 1487 1490 1497 1498 1498 1497 1497 1494 1494 1494 1496 1496 1495 1496 1497 1496 1494 1492 1492 1493 1494 1495 1497 1498 1500 1502 1504 1504 1505 1507 1507 1509 1510 1512 1514 1515 1516 1516 1517 1517 1518 1520 1522 1523 1526 1527 1530 1531
1486 1487 1490 1490 1498 1501 1500 1490 1491 1496 1497 1497 1496 1496 1496 1494 1493 1492 1490 1488 1488 1488 1488 1488 1490 1492 1494 1496 1498 1500 1500 1500 1501 1502 1504 1506 1507 1508 1509 1510 1511 1511 1512 1513 1515 1517 1520 1522 1524
1488 1491 1490 1493 1494 1489 1499 1479 1490 1494 1496 1496 1496 1496 1496 1495 1494 1491 1490 1487 1486 1485 1484 1484 1484 1486 1487 1489 1490 1492 1492 1492 1494 1496 1497 1498 1499 1499 1500 1502 1504 1503 1505 1506 1507 1509 1512 1515 1516
1490 1492 1492 1495 1494 1496 1496 1491 1488 1492 1494 1496 1496 1496 1495 1494 1493 1491 1489 1487 1486 1485 1484 1482 1482 1481 1481 1482 1483 1485 1486 1487 1488 1490 1490 1490 1491 1492 1492 1494 1496 1496 1496 1499 1501 1501 1502 1505 1509
1492 1492 1497 1498 1498 1496 1491 1494 1485 1488 1488 1493 1495 1495 1495 1494 1492 1490 1488 1487 1486 1484 1483 1481 1480 1479 1478 1477 1477 1478 1480 1482 1483 1483 1484 1484 1483 1483 1484 1486 1487 1488 1488 1490 1493 1494 1495 1497 1500
1494 1490 1497 1498 1497 1486 1503 1499 1476 1485 1489 1490 1494 1495 1494 1493 1491 1489 1487 1485 1483 1481 1480 1479 1478 1477 1476 1474 1474 1474 1475 1475 1476 1477 1478 1478 1477 1477 1477 1478 1478 1479 1481 1483 1484 1485 1487 1489 1491
1491 1485 1482 1480 1480 1482 1506 1489 1476 1486 1489 1492 1493 1493 1493 1491 1489 1487 1485 1483 1481 1479 1478 1476 1475 1474 1473 1472 1471 1471 1471 1471 1471 1471 1472 1471 1471 1471 1471 1470 1470 1471 1472 1473 1474 1476 1479 1481 1483
1492 1491 1495 1496 1506 1493 1479 1485 1486 1488 1490 1491 1490 1491 1491 1489 1487 1485 1483 1480 1478 1476 1474 1473 1472 1470 1469 1468 1468 1468 1467 1467 1467 1467 1467 1466 1466 1465 1464 1463 1463 1463 1464 1465 1466 1467 1469 1472 1475
1489 1493 1495 1497 1490 1479 1477 1478 1467 1481 1485 1487 1488 1489 1489 1488 1487 1484 1480 1477 1475 1474 1471 1469 1468 1466 1465 1465 1464 1464 1463 1462 1462 1461 1461 1460 1459 1458 1457 1457 1456 1456 1456 1458 1459 1461 1462 1464 1466
1494 1492 1494 1488 1490 1476 1466 1464 1465 1474 1480 1485 1486 1486 1487 1486 1483 1480 1478 1476 1473 1471 1469 1467 1465 1464 1463 1462 1461 1460 1459 1457 1457 1456 1456 1455 1453 1452 1451 1450 1449 1449 1450 1451 1453 1455 1457 1458 1461
1488 1486 1485 1480 1490 1498 1491 1468 1474 1475 1479 1483 1484 1485 1484 1482 1481 1478 1476 1474 1473 1471 1468 1466 1465 1463 1462 1460 1458 1457 1455 1454 1453 1451 1450 1449 1447 1446 1444 1444 1443 1444 1446 1446 1447 1450 1451 1453 1455